Rifle, CO

3:28 PM MDT on August 23, 2016 (GMT -0600)
Garfield County Regional

Weather History for KRIL - June, 2011

Change the Weather History Date:

Wednesday, June 15, 2011

  Actual Average Record
Temperature  
Mean Temperature 66 °F 66 °F  
Max Temperature 88 °F 85 °F 98 °F (1936)
Min Temperature 44 °F 47 °F 32 °F (1981)
Degree Days  
Heating Degree Days 0 2  
Month to date heating degree days 48  
Since 1 June heating degree days 48  
Since 1 July heating degree days 6614  
Cooling Degree Days 0 3  
Month to date cooling degree days 30  
Year to date cooling degree days 37  
Since 1 June cooling degree days 30  
Growing Degree Days 16 (Base 50)    
Moisture  
Dew Point 28 °F    
Average Humidity 26    
Maximum Humidity 51    
Minimum Humidity 11    
Precipitation  
Precipitation 0.00 in 0.04 in 0.98 in (1957)
Month to date precipitation 0.61  
Year to date precipitation 6.03  
Sea Level Pressure  
Sea Level Pressure 29.83 in    
Wind  
Wind Speed 6 mph (SW)    
Max Wind Speed 20 mph    
Max Gust Speed 30 mph    
Visibility 10 miles    
Events      
T = Trace of Precipitation, MM = Missing Value Source: NWS Daily Summary

Daily Weather History Graph

Daily Weather History Graph

Search for Another Location

Airport or City:

Trip Planner

Search our weather history database for the weather conditions in past years. The results will help you decide how hot, cold, wet, or windy it might be!

Date:

Astronomy

Jun. 15, 2011 Rise Set
Actual Time 5:42 AM MDT 8:39 PM MDT
Civil Twilight 5:10 AM MDT 9:12 PM MDT
Nautical Twilight 4:29 AM MDT 9:53 PM MDT
Astronomical Twilight 3:41 AM MDT 10:41 PM MDT
Moon 8:49 PM MDT (6/15) 5:26 AM MDT (6/15)
Length of Visible Light 16h 01m
Length of Day
14h 56m
Full, 100% of the Moon is Illuminated
Jun 15
Full
Jun 15
Full
Jun 23
Last Quarter
Jul 1
New
Jul 8
First Quarter

Hourly Weather History & Observations

Time (MDT) Temp. Windchill Dew Point Humidity Pressure Visibility Wind Dir Wind Speed Gust Speed Precip Events Conditions
12:53 AM 55.0 °F - 28.0 °F 35% 29.97 in 10.0 mi Calm Calm - N/A   Clear
1:53 AM 52.0 °F - 25.0 °F 35% 29.97 in 10.0 mi ESE 5.8 mph - N/A   Clear
2:53 AM 51.1 °F - 25.0 °F 36% 29.97 in 10.0 mi ESE 9.2 mph - N/A   Clear
3:53 AM 46.9 °F - 26.1 °F 44% 29.98 in 10.0 mi Calm Calm - N/A   Clear
4:53 AM 44.1 °F 41.5 °F 27.0 °F 51% 29.99 in 10.0 mi SW 4.6 mph - N/A   Clear
5:53 AM 45.0 °F 42.6 °F 27.0 °F 49% 30.00 in 10.0 mi SE 4.6 mph - N/A   Clear
6:53 AM 48.0 °F - 27.0 °F 44% 30.01 in 10.0 mi Calm Calm - N/A   Clear
7:53 AM 53.1 °F - 30.9 °F 43% 30.00 in 10.0 mi Calm Calm - N/A   Clear
9:53 AM 64.0 °F - 28.9 °F 27% 29.96 in 10.0 mi Calm Calm - N/A   Clear
10:53 AM 71.1 °F - 28.9 °F 21% 29.93 in 10.0 mi Calm Calm - N/A   Clear
11:53 AM 75.9 °F - 24.1 °F 15% 29.88 in 10.0 mi Variable 4.6 mph - N/A   Clear
12:53 PM 79.0 °F - 27.0 °F 15% 29.84 in 10.0 mi NW 6.9 mph - N/A   Clear
1:53 PM 84.9 °F - 28.9 °F 13% 29.79 in 10.0 mi West 17.3 mph - N/A   Clear
2:53 PM 86.0 °F - 28.9 °F 13% 29.77 in 10.0 mi West 18.4 mph 29.9 mph N/A   Clear
3:53 PM 87.1 °F - 26.1 °F 11% 29.75 in 10.0 mi West 17.3 mph 27.6 mph N/A   Clear
4:53 PM 87.1 °F - 27.0 °F 11% 29.73 in 10.0 mi West 19.6 mph 26.5 mph N/A   Clear
5:53 PM 86.0 °F - 26.1 °F 11% 29.70 in 10.0 mi West 17.3 mph 26.5 mph N/A   Clear
6:53 PM 84.0 °F - 25.0 °F 12% 29.68 in 10.0 mi West 15.0 mph - N/A   Clear
7:53 PM 78.1 °F - 28.0 °F 16% 29.66 in 10.0 mi West 6.9 mph - N/A   Clear
8:53 PM 72.0 °F - 28.0 °F 20% 29.66 in 10.0 mi SSE 8.1 mph - N/A   Clear
9:53 PM 72.0 °F - 28.9 °F 20% 29.65 in 10.0 mi SSE 9.2 mph - N/A   Clear
10:53 PM 69.1 °F - 33.1 °F 26% 29.66 in 10.0 mi ESE 8.1 mph - N/A   Clear
11:53 PM 66.9 °F - 34.0 °F 30% 29.65 in 10.0 mi SW 5.8 mph - N/A   Clear